Temp
-13 -13 -13 -13 -13 -13 -13 -13 -13 -13 -12 -12 -12 -12 -12 -11 -11 -11 -11 -11 -10 -11 -11 -11 -11 -11 -11 -10 -10 -11 -9 -9 -8 -8 -8 -8 -8 -8 -8 -9 -10 -8 -8 -8 -7
-13 -13 -13 -13 -13 -13 -13 -13 -13 -13 -13 -13 -12 -12 -12 -12 -12 -11 -12 -11 -11 -11 -11 -11 -11 -11 -11 -10 -10 -10 -10 -9 -9 -9 -9 -8 -8 -9 -9 -9 -8 -8 -8 -8 -8
-13 -13 -13 -13 -13 -13 -13 -13 -13 -13 -13 -13 -12 -12 -12 -12 -12 -12 -12 -11 -11 -11 -11 -11 -11 -11 -10 -11 -11 -10 -9 -9 -10 -10 -10 -9 -9 -9 -9 -10 -10 -9 -9 -9 -9
-13 -13 -13 -13 -13 -13 -13 -13 -13 -13 -13 -13 -12 -12 -12 -12 -11 -11 -12 -12 -11 -11 -11 -11 -11 -11 -11 -10 -11 -11 -10 -10 -10 -10 -10 -9 -9 -9 -9 -9 -10 -10 -10 -10 -9
-13 -14 -14 -14 -13 -13 -13 -13 -13 -13 -13 -13 -13 -12 -12 -12 -11 -12 -11 -11 -11 -11 -11 -11 -11 -11 -11 -11 -11 -10 -10 -10 -10 -11 -11 -10 -10 -10 -10 -9 -9 -11 -11 -10 -9
-14 -14 -14 -14 -13 -13 -13 -13 -13 -13 -13 -13 -12 -12 -12 -12 -12 -12 -12 -12 -12 -12 -12 -12 -12 -11 -11 -10 -11 -10 -10 -10 -11 -11 -11 -11 -10 -11 -10 -10 -10 -10 -10 -10 -10
-14 -14 -14 -14 -14 -13 -13 -13 -13 -13 -13 -13 -13 -12 -12 -12 -12 -12 -12 -12 -12 -12 -11 -11 -11 -12 -11 -11 -11 -11 -11 -10 -10 -10 -10 -11 -11 -10 -9 -10 -10 -10 -10 -9 -9
-13 -14 -14 -14 -14 -14 -14 -14 -13 -13 -13 -13 -13 -13 -13 -13 -12 -12 -12 -12 -12 -12 -12 -12 -11 -11 -11 -12 -12 -11 -11 -10 -9 -10 -10 -11 -10 -9 -9 -10 -11 -11 -10 -10 -10
-13 -14 -14 -14 -14 -14 -14 -14 -14 -14 -14 -13 -13 -13 -13 -13 -12 -12 -12 -12 -12 -12 -12 -12 -12 -12 -12 -12 -12 -11 -11 -11 -10 -10 -11 -13 -9 -9 -10 -11 -11 -11 -11 -11 -10
-13 -14 -14 -14 -14 -14 -14 -14 -14 -14 -14 -13 -13 -13 -14 -13 -13 -13 -13 -13 -13 -12 -12 -12 -12 -12 -12 -12 -12 -12 -12 -11 -11 -11 -13 -13 -11 -9 -10 -11 -12 -11 -11 -11 -11
-13 -14 -14 -14 -14 -14 -14 -14 -14 -14 -14 -14 -13 -14 -14 -13 -13 -13 -13 -13 -13 -13 -13 -13 -12 -12 -12 -13 -12 -12 -12 -11 -11 -11 -14 -15 -12 -9 -10 -10 -12 -12 -12 -12 -11
-13 -13 -14 -14 -14 -14 -14 -14 -14 -14 -14 -14 -14 -14 -14 -14 -14 -14 -14 -13 -13 -13 -13 -13 -12 -13 -13 -12 -12 -12 -12 -12 -11 -11 -15 -16 -15 -10 -10 -10 -10 -11 -12 -11 -12
-13 -13 -13 -14 -14 -14 -14 -14 -14 -14 -14 -15 -14 -15 -15 -14 -14 -14 -14 -14 -14 -14 -14 -13 -14 -15 -15 -14 -13 -12 -12 -12 -12 -12 -15 -12 -15 -11 -11 -11 -10 -10 -11 -11 -11
-14 -14 -14 -13 -14 -14 -14 -14 -15 -15 -15 -15 -15 -15 -15 -15 -15 -14 -15 -15 -16 -16 -16 -15 -17 -18 -18 -18 -18 -16 -15 -15 -13 -14 -16 -12 -16 -11 -11 -11 -11 -10 -11 -11 -11
-15 -14 -14 -14 -14 -14 -14 -14 -15 -15 -15 -15 -15 -15 -16 -16 -16 -16 -16 -16 -16 -18 -20 -19 -21 -22 -22 -22 -22 -22 -22 -21 -18 -17 -15 -15 -17 -15 -11 -11 -11 -11 -11 -11 -10
-15 -15 -15 -14 -14 -14 -14 -15 -15 -15 -16 -16 -16 -16 -16 -17 -17 -17 -18 -20 -21 -23 -22 -22 -22 -22 -21 -21 -21 -21 -22 -22 -22 -21 -21 -16 -17 -16 -14 -13 -14 -13 -11 -11 -10
-15 -15 -15 -15 -14 -15 -14 -15 -15 -16 -16 -16 -17 -17 -18 -18 -18 -19 -20 -21 -23 -22 -23 -22 -22 -22 -21 -21 -22 -22 -23 -22 -21 -21 -20 -19 -18 -16 -15 -15 -15 -15 -13 -11 -10
-16 -15 -15 -15 -15 -15 -15 -15 -16 -16 -17 -17 -17 -18 -18 -18 -19 -20 -21 -23 -23 -23 -22 -22 -22 -21 -21 -21 -22 -22 -22 -21 -21 -20 -20 -19 -18 -17 -15 -15 -15 -14 -12 -11 -10
-16 -16 -16 -16 -15 -15 -15 -15 -16 -17 -17 -17 -18 -18 -19 -20 -20 -21 -23 -23 -22 -23 -22 -22 -22 -22 -22 -21 -22 -23 -22 -21 -21 -19 -19 -18 -17 -18 -16 -16 -14 -14 -12 -11 -10
-16 -16 -16 -16 -16 -16 -16 -16 -17 -17 -17 -18 -19 -19 -19 -20 -20 -21 -21 -23 -24 -23 -23 -23 -22 -22 -22 -22 -21 -22 -22 -21 -21 -21 -20 -18 -17 -17 -17 -16 -16 -14 -12 -11 -10
-16 -16 -16 -16 -16 -16 -16 -16 -17 -17 -18 -18 -19 -19 -20 -20 -20 -21 -21 -23 -23 -24 -23 -23 -23 -22 -22 -22 -21 -22 -23 -22 -22 -21 -20 -19 -17 -16 -16 -16 -15 -14 -12 -11 -10
-15 -16 -16 -16 -16 -17 -17 -17 -17 -18 -18 -19 -19 -20 -20 -20 -20 -21 -21 -23 -23 -23 -23 -23 -23 -22 -22 -22 -21 -21 -21 -21 -21 -20 -20 -18 -18 -17 -16 -16 -16 -14 -12 -11 -10
-15 -16 -16 -17 -17 -17 -17 -17 -18 -18 -18 -19 -19 -20 -21 -20 -20 -21 -21 -22 -23 -23 -23 -23 -23 -23 -22 -21 -21 -21 -21 -22 -22 -21 -19 -19 -17 -16 -16 -16 -15 -14 -13 -11 -11
-15 -16 -17 -17 -17 -17 -17 -17 -18 -18 -19 -20 -20 -20 -20 -20 -20 -20 -21 -21 -22 -23 -23 -23 -23 -23 -22 -22 -22 -22 -22 -22 -22 -21 -19 -20 -18 -16 -16 -17 -16 -14 -13 -11 -12
-16 -16 -16 -17 -17 -17 -17 -18 -18 -19 -19 -20 -20 -20 -20 -20 -20 -20 -21 -21 -21 -22 -22 -22 -23 -22 -22 -23 -23 -23 -23 -22 -21 -21 -20 -20 -19 -17 -17 -18 -18 -14 -12 -12 -12
-15 -16 -16 -16 -17 -17 -17 -18 -19 -19 -19 -20 -20 -20 -20 -20 -20 -20 -20 -20 -21 -22 -22 -22 -22 -22 -22 -22 -23 -23 -23 -23 -21 -21 -19 -20 -20 -19 -18 -17 -16 -14 -13 -12 -12
-15 -15 -15 -16 -17 -17 -18 -18 -19 -19 -19 -20 -20 -20 -20 -20 -20 -20 -20 -20 -21 -21 -22 -22 -22 -22 -22 -23 -22 -22 -22 -22 -22 -22 -21 -19 -20 -21 -20 -19 -18 -14 -13 -13 -12
Height
5762 5761 5760 5759 5759 5758 5758 5758 5759 5760 5762 5763 5766 5768 5769 5772 5775 5777 5780 5785 5787 5791 5794 5797 5801 5805 5808 5811 5814 5815 5816 5821 5828 5831 5835 5838 5839 5841 5846 5847 5851 5853 5858 5858 5854
5759 5758 5757 5756 5756 5756 5756 5756 5757 5757 5758 5759 5761 5763 5765 5767 5769 5771 5775 5778 5780 5785 5786 5788 5792 5795 5799 5804 5806 5807 5810 5818 5821 5821 5824 5829 5832 5834 5838 5837 5842 5844 5847 5854 5854
5756 5755 5754 5753 5752 5752 5752 5753 5753 5754 5754 5755 5756 5758 5760 5761 5763 5767 5768 5770 5773 5775 5778 5781 5783 5785 5788 5792 5797 5799 5800 5812 5811 5812 5814 5821 5823 5825 5828 5831 5838 5839 5841 5846 5847
5753 5752 5751 5750 5749 5749 5748 5748 5748 5749 5749 5750 5751 5752 5754 5755 5758 5759 5762 5764 5767 5768 5771 5772 5774 5776 5780 5783 5786 5783 5794 5799 5804 5804 5804 5810 5814 5817 5819 5825 5832 5834 5837 5838 5840
5751 5749 5748 5747 5746 5745 5744 5743 5744 5744 5744 5744 5745 5746 5747 5749 5751 5752 5754 5755 5757 5759 5761 5764 5765 5767 5771 5773 5772 5776 5785 5788 5789 5789 5794 5798 5807 5809 5810 5817 5822 5824 5825 5824 5831
5748 5746 5744 5743 5741 5740 5740 5739 5739 5739 5739 5740 5740 5741 5742 5743 5743 5745 5747 5748 5749 5751 5753 5754 5755 5756 5760 5763 5762 5773 5770 5772 5772 5775 5783 5787 5797 5796 5805 5809 5812 5813 5816 5817 5823
5744 5741 5740 5738 5737 5736 5736 5735 5734 5734 5735 5735 5735 5735 5735 5737 5737 5738 5738 5739 5741 5742 5743 5744 5746 5748 5749 5750 5754 5756 5755 5758 5759 5768 5771 5778 5777 5785 5799 5800 5801 5805 5806 5809 5817
5741 5738 5735 5733 5731 5730 5730 5729 5729 5729 5729 5729 5730 5729 5729 5730 5729 5730 5730 5730 5731 5732 5734 5734 5735 5737 5738 5739 5740 5741 5741 5743 5759 5759 5763 5758 5761 5783 5792 5790 5789 5796 5797 5803 5808
5738 5734 5731 5728 5726 5724 5723 5723 5724 5724 5723 5723 5723 5723 5722 5722 5722 5722 5722 5721 5721 5722 5723 5724 5725 5726 5726 5726 5725 5729 5730 5736 5746 5749 5749 5743 5751 5770 5780 5777 5777 5784 5788 5792 5798
5735 5731 5727 5724 5721 5718 5717 5716 5716 5716 5716 5715 5716 5716 5716 5712 5712 5711 5711 5711 5710 5710 5711 5712 5714 5714 5712 5707 5710 5718 5714 5720 5725 5738 5732 5731 5736 5752 5763 5761 5763 5771 5779 5783 5788
5733 5729 5725 5721 5717 5714 5713 5711 5711 5710 5707 5708 5708 5707 5703 5703 5701 5700 5698 5697 5697 5698 5697 5697 5700 5699 5692 5689 5696 5698 5698 5703 5713 5722 5719 5723 5722 5739 5745 5748 5750 5756 5764 5771 5776
5731 5727 5723 5719 5715 5712 5709 5707 5705 5704 5703 5702 5699 5698 5696 5694 5692 5688 5687 5684 5682 5680 5678 5681 5683 5673 5672 5674 5678 5681 5681 5689 5696 5703 5700 5706 5708 5721 5728 5732 5740 5746 5750 5757 5765
5728 5724 5721 5717 5713 5709 5706 5703 5700 5697 5696 5695 5691 5689 5687 5685 5680 5677 5673 5669 5665 5662 5659 5660 5659 5655 5654 5654 5657 5663 5663 5670 5673 5681 5679 5693 5690 5703 5713 5718 5724 5733 5738 5743 5751
5724 5720 5717 5714 5711 5705 5701 5697 5694 5691 5688 5687 5684 5682 5676 5671 5666 5662 5659 5657 5653 5648 5643 5643 5638 5637 5636 5635 5638 5638 5645 5644 5651 5655 5658 5682 5673 5688 5702 5707 5710 5722 5727 5732 5740
5719 5716 5712 5709 5705 5702 5698 5692 5688 5685 5684 5680 5674 5671 5667 5663 5659 5651 5646 5641 5634 5630 5627 5628 5625 5626 5627 5627 5627 5626 5629 5629 5631 5634 5643 5653 5663 5673 5686 5690 5699 5708 5717 5722 5725
5715 5711 5708 5705 5701 5697 5692 5688 5684 5682 5676 5673 5669 5664 5659 5654 5650 5643 5638 5631 5625 5620 5618 5619 5618 5618 5617 5617 5616 5614 5611 5615 5618 5623 5622 5635 5650 5663 5674 5681 5690 5696 5704 5710 5717
5709 5707 5703 5700 5697 5692 5687 5683 5680 5676 5671 5667 5662 5656 5653 5648 5644 5637 5631 5626 5624 5617 5614 5613 5616 5612 5610 5609 5606 5605 5606 5606 5607 5608 5607 5626 5635 5648 5673 5675 5676 5686 5691 5699 5709
5704 5702 5698 5695 5691 5687 5683 5679 5675 5669 5666 5661 5657 5653 5646 5644 5638 5633 5627 5626 5614 5612 5607 5606 5609 5605 5604 5603 5601 5599 5599 5601 5599 5604 5611 5619 5614 5627 5652 5658 5662 5674 5682 5688 5699
5699 5697 5694 5690 5686 5682 5679 5674 5669 5665 5661 5656 5652 5648 5644 5637 5633 5628 5623 5618 5611 5607 5605 5601 5601 5599 5598 5596 5595 5595 5592 5594 5593 5596 5596 5603 5617 5629 5637 5648 5657 5664 5671 5680 5689
5694 5691 5688 5685 5682 5678 5674 5670 5665 5660 5655 5650 5645 5642 5638 5634 5630 5625 5618 5614 5607 5602 5598 5596 5593 5594 5594 5592 5588 5586 5590 5590 5590 5589 5593 5596 5601 5620 5628 5641 5651 5661 5665 5672 5682
5689 5686 5683 5680 5677 5673 5669 5664 5659 5655 5650 5646 5641 5636 5632 5629 5625 5619 5613 5609 5603 5599 5594 5591 5589 5590 5589 5588 5585 5586 5585 5587 5587 5587 5589 5597 5603 5615 5626 5633 5644 5652 5658 5664 5671
5684 5681 5679 5675 5673 5668 5664 5659 5655 5650 5645 5641 5637 5632 5627 5623 5619 5614 5608 5603 5598 5592 5588 5586 5583 5583 5583 5587 5584 5582 5582 5584 5586 5590 5593 5592 5595 5607 5618 5625 5639 5640 5650 5659 5664
5681 5677 5675 5672 5668 5664 5659 5655 5650 5644 5640 5636 5632 5627 5622 5618 5614 5610 5604 5598 5592 5587 5584 5582 5581 5578 5580 5581 5579 5579 5579 5581 5580 5583 5586 5592 5598 5608 5609 5619 5626 5632 5644 5652 5657
5680 5676 5674 5670 5665 5660 5655 5650 5645 5640 5636 5631 5627 5623 5619 5615 5611 5606 5600 5593 5587 5582 5580 5578 5578 5575 5575 5571 5572 5575 5577 5578 5580 5581 5584 5587 5592 5601 5607 5616 5620 5624 5635 5644 5652
5679 5675 5671 5668 5662 5656 5650 5645 5640 5635 5631 5626 5622 5619 5614 5612 5608 5603 5598 5592 5585 5580 5577 5575 5574 5572 5571 5569 5573 5574 5575 5575 5577 5578 5574 5577 5578 5583 5584 5604 5609 5613 5627 5636 5644
5679 5673 5668 5664 5659 5653 5647 5641 5636 5631 5627 5621 5618 5614 5611 5607 5604 5602 5596 5590 5585 5581 5577 5574 5573 5571 5571 5570 5569 5570 5572 5572 5573 5574 5571 5569 5572 5581 5584 5592 5595 5607 5619 5628 5637
5679 5673 5667 5662 5656 5650 5644 5637 5632 5628 5623 5618 5614 5611 5607 5604 5601 5598 5594 5589 5584 5580 5576 5574 5572 5569 5568 5568 5567 5567 5566 5566 5568 5571 5572 5566 5569 5574 5579 5582 5586 5601 5613 5622 5632
Wind_Speed
18 17 15 14 13 13 13 14 15 16 18 19 20 22 23 25 26 29 35 37 42 39 40 49 47 46 51 47 43 38 47 45 40 42 41 38 39 39 38 45 44 48 47 44 47
17 16 17 17 16 15 15 16 17 18 18 19 20 22 24 25 25 27 29 33 38 41 41 43 48 51 50 54 54 48 54 55 47 42 45 41 40 38 39 50 50 52 47 43 45
16 16 15 15 16 16 17 18 19 19 19 21 22 23 24 26 27 26 28 31 34 37 42 44 44 46 46 50 52 59 56 51 47 44 45 43 42 41 45 47 47 49 50 47 49
12 12 12 14 14 15 17 18 18 19 20 21 23 25 26 28 29 29 30 31 32 33 37 42 44 46 45 46 52 57 65 61 53 49 51 46 44 46 48 49 50 49 50 53 52
12 12 13 13 14 14 15 16 16 17 19 20 22 23 25 28 28 30 32 34 34 36 37 38 41 45 48 47 51 52 49 56 63 61 58 55 47 49 49 48 50 54 52 58 55
16 16 16 17 18 19 19 20 20 20 21 22 23 24 25 27 27 28 30 31 33 36 39 42 43 46 46 49 53 50 54 52 57 66 64 64 54 55 56 50 51 57 61 63 58
17 19 21 21 22 22 22 23 22 22 22 23 25 26 27 29 30 31 32 33 35 37 38 40 42 45 49 52 51 53 57 58 59 56 59 66 68 68 57 56 56 55 60 61 56
18 19 19 21 23 25 25 25 25 26 26 25 26 28 31 31 33 34 37 39 41 42 43 44 45 46 47 50 53 57 60 62 57 58 57 61 67 63 63 59 59 55 60 56 56
19 18 19 20 22 23 24 25 26 26 27 28 28 30 33 33 34 36 38 41 44 46 47 48 51 52 54 55 57 57 59 61 59 56 58 60 64 54 62 65 64 58 58 58 57
22 18 17 18 19 20 22 22 23 23 25 26 26 28 27 32 34 36 39 41 43 46 48 49 50 52 56 60 63 60 63 62 61 58 57 59 65 59 55 63 67 68 62 56 58
24 22 18 16 15 17 19 20 20 20 24 24 27 29 32 34 36 38 40 44 47 47 48 50 52 55 59 58 59 64 68 70 65 61 54 46 62 62 59 61 68 70 67 68 60
22 23 21 19 17 17 17 18 20 21 22 22 27 29 31 33 35 39 41 43 44 46 48 49 51 56 60 61 64 67 69 70 71 69 54 47 57 68 63 64 61 66 73 73 70
21 21 23 24 21 19 18 19 20 21 22 23 27 29 31 34 36 36 40 43 45 49 52 54 55 53 55 60 65 69 73 75 73 72 63 70 60 71 70 64 64 62 68 74 72
20 21 21 23 25 25 22 22 21 21 24 22 23 26 33 35 39 42 42 46 49 52 54 57 49 46 48 52 54 63 63 67 75 74 66 73 61 72 68 69 67 61 61 64 72
20 19 20 23 24 26 26 24 22 22 24 23 29 29 32 36 38 43 48 53 56 53 40 35 29 29 32 31 34 40 42 45 62 71 72 69 57 58 68 69 69 64 59 59 62
21 19 19 23 25 26 27 25 24 23 21 27 26 29 33 36 39 45 48 45 41 36 25 18 22 25 27 27 31 37 38 39 42 44 52 67 57 51 55 58 50 52 62 61 59
20 20 22 24 24 25 27 26 24 21 27 29 27 32 33 37 40 40 32 32 24 27 19 27 13 23 22 25 29 23 22 28 34 45 54 49 60 57 36 37 41 42 51 56 53
19 20 22 22 24 25 26 26 23 24 24 26 27 28 35 34 32 24 27 22 29 28 21 22 19 22 17 18 19 22 22 30 32 33 41 39 57 62 50 27 38 43 52 55 48
20 21 22 22 23 25 27 27 24 24 25 22 24 27 28 31 23 27 24 23 24 20 20 22 20 20 11 21 23 18 31 17 31 31 38 39 36 44 57 50 41 29 46 51 45
22 21 21 22 23 24 26 24 24 23 24 23 24 25 26 18 19 24 24 20 23 21 19 19 26 15 16 17 21 22 20 21 29 29 27 31 28 38 37 39 42 36 35 45 42
24 21 20 20 22 25 26 26 26 24 24 21 22 25 25 15 21 26 27 22 23 22 21 18 19 18 17 17 11 13 20 25 22 28 23 15 14 30 38 37 40 33 37 34 42
25 22 19 20 23 25 27 26 24 25 23 20 19 22 21 15 20 25 27 21 26 24 18 19 17 14 17 19 16 7 11 22 24 26 27 20 26 20 36 30 35 44 46 35 39
27 23 20 22 24 27 27 24 23 25 24 22 20 21 17 14 19 21 26 23 18 16 18 18 15 19 11 15 18 15 15 15 28 24 35 24 12 10 38 38 41 55 49 41 45
27 24 20 22 25 27 27 24 22 23 24 21 19 20 16 12 17 25 28 27 20 15 15 18 14 18 16 20 16 13 16 22 22 24 39 31 13 25 20 28 32 51 55 48 39
29 27 26 25 26 28 28 25 20 22 23 20 20 20 15 10 12 22 23 25 20 16 9 8 8 12 12 15 10 17 16 11 24 24 36 38 35 32 37 30 32 48 52 53 50
32 30 29 28 27 29 29 27 21 21 20 19 19 20 16 10 14 17 17 19 16 11 8 4 6 8 9 9 13 15 17 20 20 21 48 45 45 25 27 38 50 54 50 47 51
32 33 32 31 30 29 30 29 26 19 22 16 17 18 15 11 10 16 16 17 19 15 9 5 7 9 8 10 15 4 11 18 21 21 24 56 45 34 31 41 49 50 52 49 41
Wind_Direction
276 278 277 274 269 261 256 253 246 245 245 243 245 246 245 242 241 239 240 241 243 244 248 241 242 238 231 234 234 236 231 234 235 236 235 235 240 239 235 228 225 235 234 230 242
280 276 275 272 267 261 258 253 249 244 243 244 244 249 250 248 248 246 244 239 239 239 242 244 243 246 246 241 239 234 234 232 240 242 237 229 236 238 231 233 234 238 241 243 249
280 279 276 270 266 264 259 254 252 251 251 251 249 246 248 250 249 246 247 247 245 244 243 242 242 246 248 245 242 240 233 233 232 240 240 228 229 233 227 231 233 241 244 240 240
293 290 284 280 274 266 261 257 255 254 252 252 253 254 253 252 253 253 251 249 248 247 247 247 247 247 248 249 248 245 239 242 240 242 242 234 227 230 232 232 226 234 237 241 240
293 289 285 280 274 269 266 262 256 252 251 250 251 253 255 255 254 255 254 254 252 251 249 248 249 250 250 250 249 251 249 245 242 244 242 239 231 232 234 237 229 225 233 234 240
293 285 280 278 278 277 273 271 268 265 264 263 260 257 258 257 260 258 256 255 255 255 254 252 250 251 251 251 252 253 251 248 247 245 242 243 229 236 228 235 235 234 233 236 240
301 291 283 277 270 267 266 267 267 265 264 265 266 267 267 267 266 266 265 263 261 260 259 256 255 255 254 252 250 249 250 251 248 249 247 244 241 232 230 232 237 236 238 240 240
316 308 297 284 277 272 267 266 267 269 270 269 269 268 268 270 271 270 269 268 266 265 263 263 261 259 257 257 255 252 251 251 250 254 253 251 246 238 235 233 235 239 241 243 242
334 315 301 293 282 275 272 268 265 264 265 265 266 267 266 268 271 269 267 267 266 266 265 264 264 264 264 262 258 255 256 254 251 252 253 250 252 242 235 237 236 233 239 241 241
351 337 316 307 297 288 284 281 278 277 274 272 275 275 275 274 273 272 270 269 268 267 266 263 262 261 260 258 260 259 258 255 252 249 256 253 252 244 236 238 236 239 232 240 239
352 352 339 329 319 307 298 293 289 283 282 280 279 277 281 281 281 280 278 277 273 268 267 265 261 258 255 256 254 253 253 255 250 247 249 238 251 244 242 239 238 232 237 234 238
346 352 354 350 332 322 316 309 301 293 291 289 283 284 283 283 283 283 282 281 280 279 277 271 267 266 262 260 256 255 256 252 251 248 235 241 242 245 242 241 237 240 236 235 233
336 340 344 349 349 342 333 319 309 301 299 292 289 289 287 286 287 292 294 292 292 290 288 280 277 274 271 267 262 256 254 252 250 242 240 242 240 241 241 241 239 236 240 240 236
324 334 338 338 341 342 342 334 323 315 308 304 296 296 299 299 303 303 304 301 299 295 290 286 285 275 267 263 261 258 254 251 245 238 237 238 244 242 242 244 243 238 240 243 241
322 323 332 334 338 342 344 339 333 326 318 313 307 308 309 308 311 313 310 307 304 302 300 291 265 256 268 269 265 263 260 259 248 236 234 228 236 240 238 240 242 242 238 240 243
319 321 331 335 334 338 343 341 333 328 319 315 311 314 316 318 318 315 314 313 310 307 295 289 268 282 270 266 279 278 261 257 252 246 236 230 226 235 237 239 242 248 240 236 239
315 319 328 332 334 335 340 340 335 337 329 324 323 321 320 320 320 320 322 321 302 298 274 249 272 276 286 268 284 263 263 246 242 236 232 228 226 221 225 229 224 226 233 238 237
319 322 325 329 332 334 339 338 337 333 327 324 320 322 320 322 325 331 322 324 303 290 270 270 256 278 264 292 294 251 232 249 237 233 234 233 228 220 201 210 233 232 234 235 237
318 323 327 327 330 334 339 336 335 329 327 324 321 324 326 329 336 330 322 312 311 290 278 272 266 276 288 288 289 263 260 241 230 219 222 219 243 231 226 211 220 223 233 230 230
325 325 327 327 330 333 338 333 327 329 327 325 322 323 328 321 327 323 324 311 315 295 281 272 264 277 281 295 294 244 239 248 233 250 251 217 205 207 216 214 221 224 231 228 225
321 324 326 328 331 334 338 332 328 329 327 321 320 322 329 317 325 324 318 317 301 296 288 284 273 257 273 291 314 277 231 245 226 230 234 235 215 199 222 219 189 196 212 217 219
337 326 329 333 337 336 336 332 328 328 328 317 318 326 331 324 331 327 323 312 299 302 286 272 281 274 262 284 291 267 203 243 216 217 226 220 191 171 200 192 198 206 217 214 211
342 336 336 336 340 337 335 330 328 328 328 317 324 332 331 324 333 341 335 317 308 294 294 284 284 283 247 233 274 273 229 253 228 213 202 207 172 107 206 207 200 205 207 211 200
349 343 340 339 337 336 334 330 328 329 328 317 325 333 336 330 335 341 341 330 331 324 290 291 271 273 251 240 292 308 219 226 226 218 200 209 183 175 161 196 199 201 203 202 203
1 354 348 348 341 338 334 330 328 330 330 317 323 335 340 323 342 339 343 344 335 349 324 296 286 260 247 266 271 281 266 247 222 239 215 211 220 175 165 188 215 194 199 208 215
5 359 352 350 345 340 335 332 330 328 332 312 315 333 340 320 343 351 356 353 356 343 341 288 263 265 275 283 269 267 265 257 244 236 205 217 218 223 210 194 204 192 194 204 212
8 6 3 1 350 343 336 334 328 330 327 316 309 326 333 307 331 343 346 357 355 343 321 267 260 265 276 256 260 250 234 246 248 243 229 218 222 227 235 211 208 194 201 205 202